Regional Weather Roundup
Issued by NWS

Home | Current Version | Previous Version | Text Only | Print | Product List | Glossary Off
Versions: 1 2 3 4 5 6 7 8 9 10 11 12 13 14 15 16 17 18 19 20 21 22 23 24 25 26 27 28 29 30 31 32 33 34 35 36 37 38 39 40 41 42 43 44 45 46 47 48 49 50

000
ASUS43 KOAX 172210
RWRNE

WEATHER ROUNDUP FOR NEBRASKA
NATIONAL WEATHER SERVICE OMAHA NE
400 PM CST FRI NOV 17 2017

NOTES: SATELLITE DATA IS BEING USED TO AUGMENT CLOUD COVER ABOVE
       12000 FEET.
       "FAIR" INDICATES FEW OR NO CLOUDS BELOW 12,000 FEET WITH NO
       SIGNIFICANT WEATHER AND/OR OBSTRUCTIONS TO VISIBILITY.


NEZ001>004-019>022-054>056-172300-
NEBRASKA PANHANDLE

CITY           SKY/WX    TMP DP  RH WIND       PRES   REMARKS
SCOTTSBLUFF    CLOUDY    48  36  63 SW3       29.62F
ALLIANCE       LGT RAIN  41  39  93 E10       29.61F
CHADRON        LGT RAIN  44  36  73 NW3       29.61R
GORDON         CLOUDY    42  30  61 S6        29.61S
KIMBALL        LGT RAIN  44  42  94 N7        29.63F
SIDNEY         PTSUNNY   51  32  48 N15       29.63R
$$

NEZ057>060-069>072-079>082-172300-
SOUTHWEST NEBRASKA

CITY           SKY/WX    TMP DP  RH WIND       PRES   REMARKS
NORTH PLATTE   MOSUNNY   54  32  43 NE12      29.58R
LEXINGTON      SUNNY     54  33  44 NE8       29.54F
MCCOOK         SUNNY     59  33  37 NE10      29.54S
OGALLALA       SUNNY     57  30  35 N8        29.59R
$$

NEZ005>010-023>029-035>040-094-172300-
NORTH CENTRAL NEBRASKA

CITY           SKY/WX    TMP DP  RH WIND       PRES   REMARKS
VALENTINE      CLOUDY    46  33  60 NE3       29.62F
AINSWORTH      RAIN      43  38  82 N10       29.62F
BROKEN BOW     MOSUNNY   51  33  50 NE8       29.57R
O`NEILL        CLOUDY    48  36  63 N16       29.62R
ORD            CLOUDY    49  33  54 N17G23    29.55S
THEDFORD       CLOUDY    51  32  48 N14       29.63R
$$

NEZ041-046>049-061>064-073>077-083>087-172300-
SOUTH CENTRAL NEBRASKA

CITY           SKY/WX    TMP DP  RH WIND       PRES   REMARKS
GRAND ISLAND   CLOUDY    53  35  50 N14       29.54R
AURORA         SUNNY     52  35  51 N14       29.52R
HASTINGS       SUNNY     55  34  45 NE8       29.54R
HEBRON         SUNNY     67  48  52 N6        29.49R
HOLDREGE       SUNNY     55  36  48 NE13      29.54R
KEARNEY        SUNNY     52  34  50 N12       29.55R
YORK           MOSUNNY   54  39  58 N17       29.52R
$$

NEZ011>018-030>034-042>045-172300-
NORTHEAST NEBRASKA

CITY           SKY/WX    TMP DP  RH WIND       PRES   REMARKS
NORFOLK        MOCLDY    48  36  63 NW12      29.54R
ALBION         CLOUDY    49  36  58 N13       29.55S
BLAIR          CLOUDY    59  52  77 N7        29.51S
COLUMBUS       PTSUNNY   53  36  52 N10       29.54S
FREMONT        CLOUDY    56  40  56 N8        29.53R
TEKAMAH        CLOUDY    56  42  59 N13       29.51R
WAYNE          MOCLDY    49  34  55 N9        29.56R
$$

NEZ050>053-065>068-078-088>093-172300-
SOUTHEAST NEBRASKA

CITY           SKY/WX    TMP DP  RH WIND       PRES   REMARKS
LINCOLN        CLOUDY    63  50  62 N12       29.50S
OMAHA EPPLEY   CLOUDY    59  52  77 NE3       29.51R HAZE
BEATRICE       SUNNY     70  52  53 CALM      29.48R
FALLS CITY     CLEAR     65  56  72 SE6       29.47S
NEBRASKA CITY  MOCLDY    67  58  72 CALM      29.48S
PLATTSMOUTH    CLOUDY    62  56  83 CALM      29.49S
$$

NEZ044-045-051>053-067-172300-
OMAHA AREA

CITY           SKY/WX    TMP DP  RH WIND       PRES   REMARKS
OMAHA EPPLEY   CLOUDY    59  52  77 NE3       29.51R HAZE
BLAIR          CLOUDY    59  52  77 N7        29.51S
FREMONT        CLOUDY    56  40  56 N8        29.53R
MILLARD        CLOUDY    62  55  80 CALM      29.50S
OFFUTT AFB     CLOUDY    61  54  77 N7        29.49S
PLATTSMOUTH    CLOUDY    62  56  83 CALM      29.49S
WAHOO          CLOUDY    60  48  64 N10       29.51S
$$




USA.gov is the U.S. government's official web portal to all federal, state and local government web resources and services.